DM7LA-WX Weather Reports


Display with metric or nautical units.
time (UTC)temp
F
wind
direction
speed
MPH
gust
MPH
rain 1hr
in
rain 24hr
in
rain mn
in
humidity
%
barometer
mb
20260830235801 61 157 0.0 0.0 0.00 0.49 0.37 93 1004.7
20260830225802 62 202 0.0 0.0 0.00 0.49 0.37 92 1005.4
20260830215801 62 202 0.0 0.0 0.00 0.49 0.37 91 1005.7
20260830205801 63 247 0.0 0.0 0.00 0.49 0.37 90 1005.6
20260830195801 64 225 0.0 0.0 0.00 0.49 0.37 87 1006.0
20260830185801 65 247 0.0 0.0 0.00 0.49 0.37 85 1005.9
20260830175801 66 292 0.0 0.0 0.00 0.49 0.37 79 1005.6
20260830165801 67 292 0.0 0.0 0.00 0.49 0.37 80 1005.3
20260830155801 67 292 0.0 0.0 0.00 0.49 0.37 76 1005.2
20260830145801 67 270 0.0 0.0 0.00 0.49 0.37 79 1005.0
20260830135801 68 292 0.0 0.0 0.00 0.49 0.37 80 1004.6
20260830125802 67 315 0.0 0.0 0.00 0.49 0.37 79 1004.2
20260830115801 66 247 0.0 0.0 0.00 0.49 0.37 84 1003.4
20260830105802 66 247 0.0 0.0 0.01 0.49 0.37 85 1002.3
20260830095801 66 270 0.0 0.0 0.01 0.48 0.36 87 1001.4
20260830085802 66 247 0.0 0.0 0.00 0.47 0.35 85 1000.0
20260830075802 64 247 0.0 0.0 0.00 0.47 0.35 88 999.4
20260830065801 63 225 0.0 0.0 0.00 0.47 0.35 92 998.6
20260830055801 63 247 0.0 0.0 0.10 0.47 0.35 93 997.5
20260830045802 63 180 0.0 0.0 0.07 0.36 0.24 93 997.4
20260830035802 63 247 0.0 0.0 0.03 0.29 0.17 93 997.0
20260830025802 63 225 0.0 0.0 0.01 0.25 0.14 94 996.9
20260830015802 63 22 0.0 0.0 0.12 0.24 0.12 94 997.6
20260830005801 63 90 0.0 0.0 0.00 0.11 0.00 94 998.3